Flag for Finland Weather past 2 weeks in Espoo, Finland

Now
55 °F

Passing clouds.


Feels Like: 54 °F
Forecast: 46 / 64 °F
Wind: 6 mph from South

Location: Helsinki-Vantaa

Current Time: Sep 18, 2014 at 8:44:13 PM

Latest Report: Sep 18, 2014 at 8:20 PM


Visibility: N/A

Pressure: 30.27 "Hg

Humidity: 82%

Dew point: 50 °F

Location of EspooLocation

Historic Weather in Espoo — Graph

°F

Espoo temperature yesterday

Maximum temperature yesterday: 64 °F (at 1:50 PM)
Minimum temperature yesterday: 37 °F (at 6:20 AM)
Average temperature yesterday: 51 °F

Past Weeks' High & Low Weather Summary

 TemperatureHumidityPressure
High72 °F (Sep 5, 2:50 PM)100% (Sep 3, 11:50 PM)30.45 "Hg (Sep 3, 11:50 PM)
Low37 °F (Sep 16, 3:50 AM)46% (Sep 14, 6:20 PM)29.92 "Hg (Sep 9, 11:50 AM)
Average56 °F83%30.23 "Hg
* Reported Sep 3 7:20 PM — Sep 18 7:50 PM, Espoo, Weather by CustomWeather, © 2014

Note: Actual official high and low records may vary slightly from our data, if they occured in-between our weather recording intervals... More about our weather records

Advertising

Espoo weather history for previous 24 hours

 ConditionsComfort  
Time TempWeatherWind HumidityBarometerVisibility
7:50 PM
Sep 18
57 °FPassing clouds.5 mph77%30.24 "HgN/A
7:20 PM59 °FPassing clouds.6 mph72%30.24 "HgN/A
6:50 PM61 °FPassing clouds.6 mph68%30.27 "HgN/A
6:20 PM61 °FPassing clouds.9 mph63%30.27 "HgN/A
5:50 PM63 °FPassing clouds.8 mph64%30.27 "HgN/A
5:20 PM63 °FPassing clouds.7 mph64%30.27 "HgN/A
4:50 PM63 °FPassing clouds.8 mph59%30.27 "HgN/A
4:20 PM64 °FPassing clouds.8 mph56%30.27 "HgN/A
3:50 PM64 °FPassing clouds.7 mph56%30.27 "HgN/A
3:20 PM64 °FPassing clouds.7 mph56%30.27 "HgN/A
2:50 PM64 °FPassing clouds.3 mph56%30.27 "HgN/A
2:20 PM63 °FPassing clouds.5 mph59%30.27 "HgN/A
1:50 PM64 °FScattered clouds.5 mph56%30.30 "HgN/A
1:20 PM63 °FScattered clouds.6 mph59%30.30 "HgN/A
12:50 PM63 °FPassing clouds.5 mph59%30.30 "HgN/A
12:20 PM61 °FPassing clouds.5 mph63%30.30 "HgN/A
11:50 AM61 °FPassing clouds.5 mph63%30.30 "HgN/A
11:20 AM59 °FSunny.3 mph77%30.30 "Hg10 mi
10:50 AM59 °FSunny.3 mph82%30.30 "Hg10 mi
10:20 AM55 °FSunny.1 mph82%30.30 "Hg10 mi
9:50 AM52 °FSunny.1 mph88%30.30 "Hg10 mi
9:20 AM48 °FSunny.1 mph94%30.30 "Hg10 mi
8:50 AM45 °FSunny.2 mph100%30.30 "Hg10 mi
8:20 AM41 °FFog.1 mph100%30.30 "HgN/A
7:50 AM39 °FFog.1 mph93%30.30 "HgN/A
7:20 AM39 °FFog.2 mph93%30.30 "HgN/A
6:50 AM39 °FFog.1 mph93%30.30 "HgN/A
6:20 AM39 °FFog.1 mph93%30.30 "HgN/A
5:50 AM39 °FFog.1 mph93%30.30 "HgN/A
5:20 AM39 °FFog.2 mph93%30.30 "HgN/A
4:50 AM39 °FFog.2 mph100%30.30 "HgN/A
4:20 AM39 °FFog.1 mph93%30.30 "HgN/A
3:50 AM39 °FFog.1 mph100%30.30 "HgN/A
3:20 AM41 °FFog.1 mph93%30.30 "HgN/A
2:50 AM41 °FFog.1 mph93%30.30 "HgN/A
2:20 AM41 °FFog.1 mph100%30.30 "HgN/A
1:50 AM43 °FFog.1 mph100%30.33 "HgN/A
1:20 AM43 °FClear.1 mph100%30.30 "Hg10 mi
12:50 AM43 °FClear.1 mph100%30.33 "Hg10 mi
12:20 AM45 °FClear.1 mph93%30.33 "Hg10 mi
11:50 PM
Sep 17
45 °FClear.1 mph93%30.33 "Hg10 mi
11:20 PM45 °FClear.1 mph100%30.33 "Hg10 mi
10:50 PM48 °FClear.1 mph87%30.33 "Hg10 mi
10:20 PM48 °FClear.No wind94%30.33 "Hg10 mi
9:50 PM48 °FClear.1 mph94%30.33 "Hg10 mi
9:20 PM50 °FClear.2 mph88%30.33 "Hg10 mi
8:50 PM52 °FClear.3 mph82%30.33 "Hg10 mi
8:20 PM54 °FPassing clouds.6 mph77%30.33 "HgN/A
Weather by CustomWeather, © 2014

See weather overviewHow to use our weather pages